カタログに戻る

STARLINK-5296

運用中通信VLEO
NORAD 55312·PAYLOAD·🇺🇸 United States

打ち上げ Jan 19, 2023 から Vandenberg Space Force Base

Loading…

次のパス (今後24時間)

TLE

最新Source: CelesTrak SupGP

元期: Sep 15, 2026, 01:36 UTC

1 55312C 23010AV  26258.06715278 -.00036933  00000+0 -30947-2 0  2589
2 55312  70.0007 246.7841 0003570 265.0669 355.1399 14.98353430    19

AllMySatでSTARLINK-5296をリアルタイム追跡

Download on the App Store